Year,Month,Day,Hour,Minute,Value (Times are PST for temperature in C)
2011,07,28,00,00,13.20
2011,07,28,00,01,13.20
2011,07,28,00,02,13.20
2011,07,28,00,03,13.10
2011,07,28,00,04,13.10
2011,07,28,00,05,13.10
2011,07,28,00,06,13.10
2011,07,28,00,07,13.10
2011,07,28,00,08,13.10
2011,07,28,00,09,13.10
2011,07,28,00,10,13.10
2011,07,28,00,11,13.00
2011,07,28,00,12,13.00
2011,07,28,00,13,13.00
2011,07,28,00,14,13.00
2011,07,28,00,15,12.90
2011,07,28,00,16,12.90
2011,07,28,00,17,12.90
2011,07,28,00,18,12.90
2011,07,28,00,19,12.90
2011,07,28,00,20,12.90
2011,07,28,00,21,12.80
2011,07,28,00,22,12.80
2011,07,28,00,23,12.80
2011,07,28,00,24,12.80
2011,07,28,00,25,12.80
2011,07,28,00,26,12.80
2011,07,28,00,27,12.80
2011,07,28,00,28,12.80
2011,07,28,00,29,12.80
2011,07,28,00,30,12.80
2011,07,28,00,31,12.80
2011,07,28,00,32,12.80
2011,07,28,00,33,12.80
2011,07,28,00,34,12.80
2011,07,28,00,35,12.80
2011,07,28,00,36,12.80
2011,07,28,00,37,12.80
2011,07,28,00,38,12.80
2011,07,28,00,39,12.80
2011,07,28,00,40,12.80
2011,07,28,00,41,12.80
2011,07,28,00,42,12.80
2011,07,28,00,43,12.80
2011,07,28,00,44,12.80
2011,07,28,00,45,12.80
2011,07,28,00,46,12.80
2011,07,28,00,47,12.90
2011,07,28,00,48,12.90
2011,07,28,00,49,12.90
2011,07,28,00,50,12.90
2011,07,28,00,51,12.90
2011,07,28,00,52,12.90
2011,07,28,00,53,12.90
2011,07,28,00,54,12.80
2011,07,28,00,55,12.80
2011,07,28,00,56,12.80
2011,07,28,00,57,12.80
2011,07,28,00,58,12.80
2011,07,28,00,59,12.80
2011,07,28,01,00,12.80
2011,07,28,01,01,12.80
2011,07,28,01,02,12.80
2011,07,28,01,03,12.80
2011,07,28,01,04,12.70
2011,07,28,01,05,12.70
2011,07,28,01,06,12.70
2011,07,28,01,07,12.70
2011,07,28,01,08,12.60
2011,07,28,01,09,12.60
2011,07,28,01,10,12.60
2011,07,28,01,11,12.60
2011,07,28,01,12,12.50
2011,07,28,01,13,12.50
2011,07,28,01,14,12.40
2011,07,28,01,15,12.40
2011,07,28,01,16,12.40
2011,07,28,01,17,12.40
2011,07,28,01,18,12.30
2011,07,28,01,19,12.30
2011,07,28,01,20,12.30
2011,07,28,01,21,12.30
2011,07,28,01,22,12.30
2011,07,28,01,23,12.20
2011,07,28,01,24,12.20
2011,07,28,01,25,12.20
2011,07,28,01,26,12.20
2011,07,28,01,27,12.10
2011,07,28,01,28,12.10
2011,07,28,01,29,12.10
2011,07,28,01,30,12.10
2011,07,28,01,31,12.10
2011,07,28,01,32,12.10
2011,07,28,01,33,12.10
2011,07,28,01,34,12.10
2011,07,28,01,35,12.00
2011,07,28,01,36,12.00
2011,07,28,01,37,12.00
2011,07,28,01,38,12.00
2011,07,28,01,39,11.90
2011,07,28,01,40,11.90
2011,07,28,01,41,11.90
2011,07,28,01,42,11.90
2011,07,28,01,43,11.90
2011,07,28,01,44,11.90
2011,07,28,01,45,11.90
2011,07,28,01,46,11.90
2011,07,28,01,47,11.90
2011,07,28,01,48,11.90
2011,07,28,01,49,11.80
2011,07,28,01,50,11.80
2011,07,28,01,51,11.80
2011,07,28,01,52,11.80
2011,07,28,01,53,11.80
2011,07,28,01,54,11.80
2011,07,28,01,55,11.80
2011,07,28,01,56,11.70
2011,07,28,01,57,11.70
2011,07,28,01,58,11.70
2011,07,28,01,59,11.70
2011,07,28,02,00,11.70
2011,07,28,02,01,11.60
2011,07,28,02,02,11.60
2011,07,28,02,03,11.60
2011,07,28,02,04,11.60
2011,07,28,02,05,11.60
2011,07,28,02,06,11.60
2011,07,28,02,07,11.50
2011,07,28,02,08,11.50
2011,07,28,02,09,11.50
2011,07,28,02,10,11.50
2011,07,28,02,11,11.50
2011,07,28,02,12,11.40
2011,07,28,02,13,11.40
2011,07,28,02,14,11.40
2011,07,28,02,15,11.40
2011,07,28,02,16,11.40
2011,07,28,02,17,11.40
2011,07,28,02,18,11.30
2011,07,28,02,19,11.30
2011,07,28,02,20,11.30
2011,07,28,02,21,11.30
2011,07,28,02,22,11.30
2011,07,28,02,23,11.30
2011,07,28,02,24,11.30
2011,07,28,02,25,11.30
2011,07,28,02,26,11.30
2011,07,28,02,27,11.30
2011,07,28,02,28,11.20
2011,07,28,02,29,11.20
2011,07,28,02,30,11.20
2011,07,28,02,31,11.20
2011,07,28,02,32,11.20
2011,07,28,02,33,11.20
2011,07,28,02,34,11.20
2011,07,28,02,35,11.20
2011,07,28,02,36,11.10
2011,07,28,02,37,11.10
2011,07,28,02,38,11.10
2011,07,28,02,39,11.10
2011,07,28,02,40,11.10
2011,07,28,02,41,11.10
2011,07,28,02,42,11.10
2011,07,28,02,43,11.10
2011,07,28,02,44,11.00
2011,07,28,02,45,11.00
2011,07,28,02,46,11.00
2011,07,28,02,47,11.00
2011,07,28,02,48,11.00
2011,07,28,02,49,11.00
2011,07,28,02,50,11.00
2011,07,28,02,51,11.00
2011,07,28,02,52,10.90
2011,07,28,02,53,10.90
2011,07,28,02,54,10.90
2011,07,28,02,55,10.90
2011,07,28,02,56,10.90
2011,07,28,02,57,10.90
2011,07,28,02,58,10.90
2011,07,28,02,59,10.90
2011,07,28,03,00,10.90
2011,07,28,03,01,10.90
2011,07,28,03,02,10.90
2011,07,28,03,03,10.90
2011,07,28,03,04,10.90
2011,07,28,03,05,10.90
2011,07,28,03,06,10.90
2011,07,28,03,07,10.90
2011,07,28,03,08,10.90
2011,07,28,03,09,10.90
2011,07,28,03,10,10.80
2011,07,28,03,11,10.90
2011,07,28,03,12,10.80
2011,07,28,03,13,10.80
2011,07,28,03,14,10.80
2011,07,28,03,15,10.90
2011,07,28,03,16,10.90
2011,07,28,03,17,10.80
2011,07,28,03,18,10.90
2011,07,28,03,19,10.90
2011,07,28,03,20,10.80
2011,07,28,03,21,10.80
2011,07,28,03,22,10.80
2011,07,28,03,23,10.80
2011,07,28,03,24,10.80
2011,07,28,03,25,10.80
2011,07,28,03,26,10.80
2011,07,28,03,27,10.80
2011,07,28,03,28,10.70
2011,07,28,03,29,10.70
2011,07,28,03,30,10.70
2011,07,28,03,31,10.70
2011,07,28,03,32,10.70
2011,07,28,03,33,10.70
2011,07,28,03,34,10.60
2011,07,28,03,35,10.60
2011,07,28,03,36,10.60
2011,07,28,03,37,10.60
2011,07,28,03,38,10.60
2011,07,28,03,39,10.60
2011,07,28,03,40,10.50
2011,07,28,03,41,10.50
2011,07,28,03,42,10.50
2011,07,28,03,43,10.50
2011,07,28,03,44,10.40
2011,07,28,03,45,10.40
2011,07,28,03,46,10.40
2011,07,28,03,47,10.40
2011,07,28,03,48,10.40
2011,07,28,03,49,10.40
2011,07,28,03,50,10.40
2011,07,28,03,51,10.30
2011,07,28,03,52,10.30
2011,07,28,03,53,10.30
2011,07,28,03,54,10.30
2011,07,28,03,55,10.30
2011,07,28,03,56,10.30
2011,07,28,03,57,10.30
2011,07,28,03,58,10.30
2011,07,28,03,59,10.30
2011,07,28,04,00,10.30
2011,07,28,04,01,10.30
2011,07,28,04,02,10.30
2011,07,28,04,03,10.30
2011,07,28,04,04,10.30
2011,07,28,04,05,10.30
2011,07,28,04,06,10.30
2011,07,28,04,07,10.30
2011,07,28,04,08,10.30
2011,07,28,04,09,10.30
2011,07,28,04,10,10.30
2011,07,28,04,11,10.30
2011,07,28,04,12,10.30
2011,07,28,04,13,10.30
2011,07,28,04,14,10.30
2011,07,28,04,15,10.30
2011,07,28,04,16,10.30
2011,07,28,04,17,10.30
2011,07,28,04,18,10.30
2011,07,28,04,19,10.30
2011,07,28,04,20,10.30
2011,07,28,04,21,10.30
2011,07,28,04,22,10.30
2011,07,28,04,23,10.30
2011,07,28,04,24,10.30
2011,07,28,04,25,10.20
2011,07,28,04,26,10.20
2011,07,28,04,27,10.20
2011,07,28,04,28,10.20
2011,07,28,04,29,10.20
2011,07,28,04,30,10.20
2011,07,28,04,31,10.20
2011,07,28,04,32,10.20
2011,07,28,04,33,10.20
2011,07,28,04,34,10.20
2011,07,28,04,35,10.20
2011,07,28,04,36,10.20
2011,07,28,04,37,10.20
2011,07,28,04,38,10.20
2011,07,28,04,39,10.10
2011,07,28,04,40,10.10
2011,07,28,04,41,10.10
2011,07,28,04,42,10.10
2011,07,28,04,43,10.10
2011,07,28,04,44,10.10
2011,07,28,04,45,10.10
2011,07,28,04,46,10.10
2011,07,28,04,47,10.00
2011,07,28,04,48,10.00
2011,07,28,04,49,10.00
2011,07,28,04,50,10.00
2011,07,28,04,51,10.00
2011,07,28,04,52,10.00
2011,07,28,04,53,9.90
2011,07,28,04,54,9.90
2011,07,28,04,55,9.90
2011,07,28,04,56,9.90
2011,07,28,04,57,9.90
2011,07,28,04,58,9.90
2011,07,28,04,59,9.90
2011,07,28,05,00,9.90
2011,07,28,05,01,9.80
2011,07,28,05,02,9.80
2011,07,28,05,03,9.80
2011,07,28,05,04,9.80
2011,07,28,05,05,9.80
2011,07,28,05,06,9.80
2011,07,28,05,07,9.80
2011,07,28,05,08,9.80
2011,07,28,05,09,9.80
2011,07,28,05,10,9.80
2011,07,28,05,11,9.80
2011,07,28,05,12,9.80
2011,07,28,05,13,9.80
2011,07,28,05,14,9.70
2011,07,28,05,15,9.70
2011,07,28,05,16,9.70
2011,07,28,05,17,9.70
2011,07,28,05,18,9.70
2011,07,28,05,19,9.70
2011,07,28,05,20,9.70
2011,07,28,05,21,9.70
2011,07,28,05,22,9.70
2011,07,28,05,23,9.70
2011,07,28,05,24,9.70
2011,07,28,05,25,9.70
2011,07,28,05,26,9.70
2011,07,28,05,27,9.70
2011,07,28,05,28,9.70
2011,07,28,05,29,9.60
2011,07,28,05,30,9.60
2011,07,28,05,31,9.60
2011,07,28,05,32,9.60
2011,07,28,05,33,9.60
2011,07,28,05,34,9.60
2011,07,28,05,35,9.60
2011,07,28,05,36,9.60
2011,07,28,05,37,9.60
2011,07,28,05,38,9.60
2011,07,28,05,39,9.60
2011,07,28,05,40,9.50
2011,07,28,05,41,9.50
2011,07,28,05,42,9.50
2011,07,28,05,43,9.50
2011,07,28,05,44,9.50
2011,07,28,05,45,9.50
2011,07,28,05,46,9.50
2011,07,28,05,47,9.50
2011,07,28,05,48,9.50
2011,07,28,05,49,9.50
2011,07,28,05,50,9.50
2011,07,28,05,51,9.40
2011,07,28,05,52,9.40
2011,07,28,05,53,9.40
2011,07,28,05,54,9.40
2011,07,28,05,55,9.40
2011,07,28,05,56,9.40
2011,07,28,05,57,9.40
2011,07,28,05,58,9.40
2011,07,28,05,59,9.40
2011,07,28,06,00,9.40
2011,07,28,06,01,9.40
2011,07,28,06,02,9.40
2011,07,28,06,03,9.40
2011,07,28,06,04,9.40
2011,07,28,06,05,9.40
2011,07,28,06,06,9.40
2011,07,28,06,07,9.40
2011,07,28,06,08,9.40
2011,07,28,06,09,9.40
2011,07,28,06,10,9.40
2011,07,28,06,11,9.40
2011,07,28,06,12,9.40
2011,07,28,06,13,9.40
2011,07,28,06,14,9.40
2011,07,28,06,15,9.40
2011,07,28,06,16,9.40
2011,07,28,06,17,9.40
2011,07,28,06,18,9.40
2011,07,28,06,19,9.40
2011,07,28,06,20,9.40
2011,07,28,06,21,9.40
2011,07,28,06,22,9.40
2011,07,28,06,23,9.40
2011,07,28,06,24,9.40
2011,07,28,06,25,9.40
2011,07,28,06,26,9.40
2011,07,28,06,27,9.30
2011,07,28,06,28,9.30
2011,07,28,06,29,9.40
2011,07,28,06,30,9.40
2011,07,28,06,31,9.40
2011,07,28,06,32,9.40
2011,07,28,06,33,9.40
2011,07,28,06,34,9.40
2011,07,28,06,35,9.40
2011,07,28,06,36,9.40
2011,07,28,06,37,9.40
2011,07,28,06,38,9.50
2011,07,28,06,39,9.50
2011,07,28,06,40,9.50
2011,07,28,06,41,9.50
2011,07,28,06,42,9.50
2011,07,28,06,43,9.50
2011,07,28,06,44,9.60
2011,07,28,06,45,9.60
2011,07,28,06,46,9.60
2011,07,28,06,47,9.60
2011,07,28,06,48,9.60
2011,07,28,06,49,9.60
2011,07,28,06,50,9.60
2011,07,28,06,51,9.60
2011,07,28,06,52,9.60
2011,07,28,06,53,9.70
2011,07,28,06,54,9.70
2011,07,28,06,55,9.70
2011,07,28,06,56,9.70
2011,07,28,06,57,9.70
2011,07,28,06,58,9.70
2011,07,28,06,59,9.70
2011,07,28,07,00,9.70
2011,07,28,07,01,9.70
2011,07,28,07,02,9.80
2011,07,28,07,03,9.80
2011,07,28,07,04,9.80
2011,07,28,07,05,9.80
2011,07,28,07,06,9.80
2011,07,28,07,07,9.90
2011,07,28,07,08,9.90
2011,07,28,07,09,9.90
2011,07,28,07,10,9.90
2011,07,28,07,11,9.90
2011,07,28,07,12,9.90
2011,07,28,07,13,9.90
2011,07,28,07,14,10.00
2011,07,28,07,15,10.00
2011,07,28,07,16,10.10
2011,07,28,07,17,10.10
2011,07,28,07,18,10.10
2011,07,28,07,19,10.20
2011,07,28,07,20,10.20
2011,07,28,07,21,10.20
2011,07,28,07,22,10.20
2011,07,28,07,23,10.20
2011,07,28,07,24,10.30
2011,07,28,07,25,10.30
2011,07,28,07,26,10.30
2011,07,28,07,27,10.40
2011,07,28,07,28,10.50
2011,07,28,07,29,10.50
2011,07,28,07,30,10.60
2011,07,28,07,31,10.60
2011,07,28,07,32,10.60
2011,07,28,07,33,10.70
2011,07,28,07,34,10.70
2011,07,28,07,35,10.70
2011,07,28,07,36,10.70
2011,07,28,07,37,10.80
2011,07,28,07,38,10.80
2011,07,28,07,39,10.90
2011,07,28,07,40,10.90
2011,07,28,07,41,11.00
2011,07,28,07,42,11.00
2011,07,28,07,43,11.10
2011,07,28,07,44,11.10
2011,07,28,07,45,11.10
2011,07,28,07,46,11.20
2011,07,28,07,47,11.20
2011,07,28,07,48,11.20
2011,07,28,07,49,11.30
2011,07,28,07,50,11.30
2011,07,28,07,51,11.30
2011,07,28,07,52,11.40
2011,07,28,07,53,11.50
2011,07,28,07,54,11.50
2011,07,28,07,55,11.60
2011,07,28,07,56,11.60
2011,07,28,07,57,11.70
2011,07,28,07,58,11.70
2011,07,28,07,59,11.80
2011,07,28,08,00,11.80
2011,07,28,08,01,11.90
2011,07,28,08,02,12.00
2011,07,28,08,03,12.00
2011,07,28,08,04,12.10
2011,07,28,08,05,12.20
2011,07,28,08,06,12.20
2011,07,28,08,07,12.30
2011,07,28,08,08,12.40
2011,07,28,08,09,12.50
2011,07,28,08,10,12.60
2011,07,28,08,11,12.70
2011,07,28,08,12,12.80
2011,07,28,08,13,12.90
2011,07,28,08,14,13.00
2011,07,28,08,15,13.10
2011,07,28,08,16,13.20
2011,07,28,08,17,13.30
2011,07,28,08,18,13.30
2011,07,28,08,19,13.40
2011,07,28,08,20,13.60
2011,07,28,08,21,13.70
2011,07,28,08,22,13.80
2011,07,28,08,23,13.80
2011,07,28,08,24,14.00
2011,07,28,08,25,14.00
2011,07,28,08,26,14.10
2011,07,28,08,27,14.20
2011,07,28,08,28,14.30
2011,07,28,08,29,14.40
2011,07,28,08,30,14.50
2011,07,28,08,31,14.60
2011,07,28,08,32,14.70
2011,07,28,08,33,14.80
2011,07,28,08,34,15.00
2011,07,28,08,35,15.00
2011,07,28,08,36,15.00
2011,07,28,08,37,15.10
2011,07,28,08,38,15.20
2011,07,28,08,39,15.40
2011,07,28,08,40,15.40
2011,07,28,08,41,15.50
2011,07,28,08,42,15.60
2011,07,28,08,43,15.70
2011,07,28,08,44,15.80
2011,07,28,08,45,15.90
2011,07,28,08,46,16.00
2011,07,28,08,47,16.10
2011,07,28,08,48,16.20
2011,07,28,08,49,16.30
2011,07,28,08,50,16.40
2011,07,28,08,51,16.50
2011,07,28,08,52,16.60
2011,07,28,08,53,16.70
2011,07,28,08,54,16.80
2011,07,28,08,55,16.90
2011,07,28,08,56,17.00
2011,07,28,08,57,17.00
2011,07,28,08,58,17.10
2011,07,28,08,59,17.10
2011,07,28,09,00,17.10
2011,07,28,09,01,17.10
2011,07,28,09,02,17.10
2011,07,28,09,03,17.10
2011,07,28,09,04,17.10
2011,07,28,09,05,17.10
2011,07,28,09,06,17.10
2011,07,28,09,07,17.10
2011,07,28,09,08,17.10
2011,07,28,09,09,17.20
2011,07,28,09,10,17.20
2011,07,28,09,11,17.30
2011,07,28,09,12,17.30
2011,07,28,09,13,17.30
2011,07,28,09,14,17.30
2011,07,28,09,15,17.40
2011,07,28,09,16,17.40
2011,07,28,09,17,17.50
2011,07,28,09,18,17.60
2011,07,28,09,19,17.60
2011,07,28,09,20,17.70
2011,07,28,09,21,17.70
2011,07,28,09,22,17.80
2011,07,28,09,23,17.80
2011,07,28,09,24,17.80
2011,07,28,09,25,17.90
2011,07,28,09,26,18.00
2011,07,28,09,27,18.00
2011,07,28,09,28,18.00
2011,07,28,09,29,18.10
2011,07,28,09,30,18.10
2011,07,28,09,31,18.10
2011,07,28,09,32,18.20
2011,07,28,09,33,18.20
2011,07,28,09,34,18.30
2011,07,28,09,35,18.30
2011,07,28,09,36,18.40
2011,07,28,09,37,18.40
2011,07,28,09,38,18.50
2011,07,28,09,39,18.50
2011,07,28,09,40,18.60
2011,07,28,09,41,18.60
2011,07,28,09,42,18.70
2011,07,28,09,43,18.80
2011,07,28,09,44,18.90
2011,07,28,09,45,19.00
2011,07,28,09,46,19.10
2011,07,28,09,47,19.10
2011,07,28,09,48,19.10
2011,07,28,09,49,19.10
2011,07,28,09,50,19.10
2011,07,28,09,51,19.10
2011,07,28,09,52,19.10
2011,07,28,09,53,19.10
2011,07,28,09,54,19.10
2011,07,28,09,55,19.10
2011,07,28,09,56,19.10
2011,07,28,09,57,19.10
2011,07,28,09,58,19.20
2011,07,28,09,59,19.20
2011,07,28,10,00,19.30
2011,07,28,10,01,19.40
2011,07,28,10,02,19.50
2011,07,28,10,03,19.60
2011,07,28,10,04,19.70
2011,07,28,10,05,19.70
2011,07,28,10,06,19.80
2011,07,28,10,07,19.80
2011,07,28,10,08,19.70
2011,07,28,10,09,19.70
2011,07,28,10,10,19.70
2011,07,28,10,11,19.70
2011,07,28,10,12,19.70
2011,07,28,10,13,19.70
2011,07,28,10,14,19.80
2011,07,28,10,15,19.80
2011,07,28,10,16,19.80
2011,07,28,10,17,19.90
2011,07,28,10,18,19.90
2011,07,28,10,19,20.00
2011,07,28,10,20,20.00
2011,07,28,10,21,20.10
2011,07,28,10,22,20.20
2011,07,28,10,23,20.30
2011,07,28,10,24,20.30
2011,07,28,10,25,20.40
2011,07,28,10,26,20.40
2011,07,28,10,27,20.50
2011,07,28,10,28,20.50
2011,07,28,10,29,20.60
2011,07,28,10,30,20.60
2011,07,28,10,31,20.70
2011,07,28,10,32,20.70
2011,07,28,10,33,20.70
2011,07,28,10,34,20.70
2011,07,28,10,35,20.70
2011,07,28,10,36,20.60
2011,07,28,10,37,20.60
2011,07,28,10,38,20.60
2011,07,28,10,39,20.60
2011,07,28,10,40,20.60
2011,07,28,10,41,20.60
2011,07,28,10,42,20.60
2011,07,28,10,43,20.70
2011,07,28,10,44,20.70
2011,07,28,10,45,20.80
2011,07,28,10,46,20.80
2011,07,28,10,47,20.80
2011,07,28,10,48,20.70
2011,07,28,10,49,20.70
2011,07,28,10,50,20.60
2011,07,28,10,51,20.60
2011,07,28,10,52,20.70
2011,07,28,10,53,20.70
2011,07,28,10,54,20.80
2011,07,28,10,55,20.80
2011,07,28,10,56,20.80
2011,07,28,10,57,20.80
2011,07,28,10,58,20.80
2011,07,28,10,59,20.80
2011,07,28,11,00,20.80
2011,07,28,11,01,20.80
2011,07,28,11,02,20.80
2011,07,28,11,03,20.80
2011,07,28,11,04,20.80
2011,07,28,11,05,20.80
2011,07,28,11,06,20.80
2011,07,28,11,07,20.80
2011,07,28,11,08,20.80
2011,07,28,11,09,20.80
2011,07,28,11,10,20.80
2011,07,28,11,11,20.90
2011,07,28,11,12,20.90
2011,07,28,11,13,20.90
2011,07,28,11,14,20.90
2011,07,28,11,15,20.90
2011,07,28,11,16,20.90
2011,07,28,11,17,20.90
2011,07,28,11,18,20.90
2011,07,28,11,19,20.80
2011,07,28,11,20,20.80
2011,07,28,11,21,20.80
2011,07,28,11,22,20.80
2011,07,28,11,23,20.80
2011,07,28,11,24,20.80
2011,07,28,11,25,20.80
2011,07,28,11,26,20.90
2011,07,28,11,27,20.90
2011,07,28,11,28,20.90
2011,07,28,11,29,20.90
2011,07,28,11,30,20.80
2011,07,28,11,31,20.80
2011,07,28,11,32,20.80
2011,07,28,11,33,20.70
2011,07,28,11,34,20.80
2011,07,28,11,35,20.80
2011,07,28,11,36,20.70
2011,07,28,11,37,20.70
2011,07,28,11,38,20.80
2011,07,28,11,39,20.80
2011,07,28,11,40,20.80
2011,07,28,11,41,20.90
2011,07,28,11,42,20.90
2011,07,28,11,43,20.90
2011,07,28,11,44,20.90
2011,07,28,11,45,20.90
2011,07,28,11,46,20.80
2011,07,28,11,47,20.80
2011,07,28,11,48,20.80
2011,07,28,11,49,20.80
2011,07,28,11,50,20.80
2011,07,28,11,51,20.80
2011,07,28,11,52,20.90
2011,07,28,11,53,21.00
2011,07,28,11,54,21.10
2011,07,28,11,55,21.10
2011,07,28,11,56,21.10
2011,07,28,11,57,21.20
2011,07,28,11,58,21.20
2011,07,28,11,59,21.30
2011,07,28,12,00,21.30
2011,07,28,12,01,21.30
2011,07,28,12,02,21.30
2011,07,28,12,03,21.20
2011,07,28,12,04,21.20
2011,07,28,12,05,21.20
2011,07,28,12,06,21.10
2011,07,28,12,07,21.10
2011,07,28,12,08,21.10
2011,07,28,12,09,21.10
2011,07,28,12,10,21.00
2011,07,28,12,11,21.00
2011,07,28,12,12,21.10
2011,07,28,12,13,21.10
2011,07,28,12,14,21.10
2011,07,28,12,15,21.00
2011,07,28,12,16,21.00
2011,07,28,12,17,21.00
2011,07,28,12,18,21.00
2011,07,28,12,19,21.00
2011,07,28,12,20,21.00
2011,07,28,12,21,20.90
2011,07,28,12,22,20.90
2011,07,28,12,23,20.90
2011,07,28,12,24,20.80
2011,07,28,12,25,20.80
2011,07,28,12,26,20.80
2011,07,28,12,27,20.70
2011,07,28,12,28,20.70
2011,07,28,12,29,20.80
2011,07,28,12,30,20.80
2011,07,28,12,31,20.80
2011,07,28,12,32,20.80
2011,07,28,12,33,20.80
2011,07,28,12,34,20.80
2011,07,28,12,35,20.80
2011,07,28,12,36,20.70
2011,07,28,12,37,20.70
2011,07,28,12,38,20.70
2011,07,28,12,39,20.80
2011,07,28,12,40,20.90
2011,07,28,12,41,20.90
2011,07,28,12,42,20.90
2011,07,28,12,43,20.90
2011,07,28,12,44,21.00
2011,07,28,12,45,21.10
2011,07,28,12,46,21.20
2011,07,28,12,47,21.20
2011,07,28,12,48,21.20
2011,07,28,12,49,21.30
2011,07,28,12,50,21.30
2011,07,28,12,51,21.30
2011,07,28,12,52,21.30
2011,07,28,12,53,21.30
2011,07,28,12,54,21.30
2011,07,28,12,55,21.30
2011,07,28,12,56,21.30
2011,07,28,12,57,21.30
2011,07,28,12,58,21.20
2011,07,28,12,59,21.20
2011,07,28,13,00,21.20
2011,07,28,13,01,21.30
2011,07,28,13,02,21.40
2011,07,28,13,03,21.40
2011,07,28,13,04,21.50
2011,07,28,13,05,21.60
2011,07,28,13,06,21.60
2011,07,28,13,07,21.60
2011,07,28,13,08,21.50
2011,07,28,13,09,21.50
2011,07,28,13,10,21.40
2011,07,28,13,11,21.30
2011,07,28,13,12,21.30
2011,07,28,13,13,21.30
2011,07,28,13,14,21.20
2011,07,28,13,15,21.30
2011,07,28,13,16,21.30
2011,07,28,13,17,21.40
2011,07,28,13,18,21.40
2011,07,28,13,19,21.50
2011,07,28,13,20,21.50
2011,07,28,13,21,21.50
2011,07,28,13,22,21.60
2011,07,28,13,23,21.60
2011,07,28,13,24,21.60
2011,07,28,13,25,21.60
2011,07,28,13,26,21.70
2011,07,28,13,27,21.80
2011,07,28,13,28,21.80
2011,07,28,13,29,21.80
2011,07,28,13,30,21.90
2011,07,28,13,31,21.90
2011,07,28,13,32,22.00
2011,07,28,13,33,22.00
2011,07,28,13,34,22.10
2011,07,28,13,35,22.20
2011,07,28,13,36,22.30
2011,07,28,13,37,22.30
2011,07,28,13,38,22.40
2011,07,28,13,39,22.40
2011,07,28,13,40,22.40
2011,07,28,13,41,22.40
2011,07,28,13,42,22.30
2011,07,28,13,43,22.20
2011,07,28,13,44,22.20
2011,07,28,13,45,22.00
2011,07,28,13,46,21.90
2011,07,28,13,47,21.80
2011,07,28,13,48,21.80
2011,07,28,13,49,21.80
2011,07,28,13,50,21.80
2011,07,28,13,51,21.90
2011,07,28,13,52,21.90
2011,07,28,13,53,21.90
2011,07,28,13,54,21.90
2011,07,28,13,55,21.90
2011,07,28,13,56,22.00
2011,07,28,13,57,22.00
2011,07,28,13,58,22.00
2011,07,28,13,59,22.00
2011,07,28,14,00,22.00
2011,07,28,14,01,21.90
2011,07,28,14,02,21.90
2011,07,28,14,03,21.80
2011,07,28,14,04,21.80
2011,07,28,14,05,21.80
2011,07,28,14,06,21.90
2011,07,28,14,07,21.90
2011,07,28,14,08,21.80
2011,07,28,14,09,21.80
2011,07,28,14,10,21.80
2011,07,28,14,11,21.80
2011,07,28,14,12,21.80
2011,07,28,14,13,21.70
2011,07,28,14,14,21.70
2011,07,28,14,15,21.70
2011,07,28,14,16,21.60
2011,07,28,14,17,21.60
2011,07,28,14,18,21.70
2011,07,28,14,19,21.80
2011,07,28,14,20,21.80
2011,07,28,14,21,21.90
2011,07,28,14,22,21.90
2011,07,28,14,23,21.90
2011,07,28,14,24,21.90
2011,07,28,14,25,21.90
2011,07,28,14,26,21.90
2011,07,28,14,27,21.90
2011,07,28,14,28,21.90
2011,07,28,14,29,21.90
2011,07,28,14,30,21.80
2011,07,28,14,31,21.80
2011,07,28,14,32,21.80
2011,07,28,14,33,21.80
2011,07,28,14,34,21.80
2011,07,28,14,35,21.80
2011,07,28,14,36,21.80
2011,07,28,14,37,21.90
2011,07,28,14,38,21.90
2011,07,28,14,39,22.00
2011,07,28,14,40,22.00
2011,07,28,14,41,22.10
2011,07,28,14,42,22.10
2011,07,28,14,43,22.10
2011,07,28,14,44,22.10
2011,07,28,14,45,22.00
2011,07,28,14,46,22.00
2011,07,28,14,47,22.00
2011,07,28,14,48,22.00
2011,07,28,14,49,22.00
2011,07,28,14,50,22.00
2011,07,28,14,51,22.10
2011,07,28,14,52,22.10
2011,07,28,14,53,22.20
2011,07,28,14,54,22.30
2011,07,28,14,55,22.40
2011,07,28,14,56,22.50
2011,07,28,14,57,22.50
2011,07,28,14,58,22.50
2011,07,28,14,59,22.50
2011,07,28,15,00,22.50
2011,07,28,15,01,22.50
2011,07,28,15,02,22.40
2011,07,28,15,03,22.40
2011,07,28,15,04,22.30
2011,07,28,15,05,22.30
2011,07,28,15,06,22.30
2011,07,28,15,07,22.30
2011,07,28,15,08,22.30
2011,07,28,15,09,22.30
2011,07,28,15,10,22.30
2011,07,28,15,11,22.20
2011,07,28,15,12,22.20
2011,07,28,15,13,22.20
2011,07,28,15,14,22.20
2011,07,28,15,15,22.20
2011,07,28,15,16,22.20
2011,07,28,15,17,22.10
2011,07,28,15,18,22.10
2011,07,28,15,19,22.10
2011,07,28,15,20,22.10
2011,07,28,15,21,22.10
2011,07,28,15,22,22.20
2011,07,28,15,23,22.20
2011,07,28,15,24,22.20
2011,07,28,15,25,22.20
2011,07,28,15,26,22.20
2011,07,28,15,27,22.20
2011,07,28,15,28,22.10
2011,07,28,15,29,22.20
2011,07,28,15,30,22.20
2011,07,28,15,31,22.20
2011,07,28,15,32,22.20
2011,07,28,15,33,22.10
2011,07,28,15,34,22.20
2011,07,28,15,35,22.20
2011,07,28,15,36,22.30
2011,07,28,15,37,22.30
2011,07,28,15,38,22.30
2011,07,28,15,39,22.40
2011,07,28,15,40,22.40
2011,07,28,15,41,22.40
2011,07,28,15,42,22.50
2011,07,28,15,43,22.60
2011,07,28,15,44,22.50
2011,07,28,15,45,22.40
2011,07,28,15,46,22.40
2011,07,28,15,47,22.40
2011,07,28,15,48,22.40
2011,07,28,15,49,22.40
2011,07,28,15,50,22.40
2011,07,28,15,51,22.40
2011,07,28,15,52,22.40
2011,07,28,15,53,22.30
2011,07,28,15,54,22.30
2011,07,28,15,55,22.40
2011,07,28,15,56,22.30
2011,07,28,15,57,22.40
2011,07,28,15,58,22.40
2011,07,28,15,59,22.40
2011,07,28,16,00,22.30
2011,07,28,16,01,22.30
2011,07,28,16,02,22.30
2011,07,28,16,03,22.20
2011,07,28,16,04,22.20
2011,07,28,16,05,22.20
2011,07,28,16,06,22.20
2011,07,28,16,07,22.30
2011,07,28,16,08,22.30
2011,07,28,16,09,22.30
2011,07,28,16,10,22.30
2011,07,28,16,11,22.30
2011,07,28,16,12,22.30
2011,07,28,16,13,22.40
2011,07,28,16,14,22.40
2011,07,28,16,15,22.40
2011,07,28,16,16,22.40
2011,07,28,16,17,22.40
2011,07,28,16,18,22.30
2011,07,28,16,19,22.30
2011,07,28,16,20,22.40
2011,07,28,16,21,22.40
2011,07,28,16,22,22.40
2011,07,28,16,23,22.50
2011,07,28,16,24,22.50
2011,07,28,16,25,22.60
2011,07,28,16,26,22.60
2011,07,28,16,27,22.60
2011,07,28,16,28,22.70
2011,07,28,16,29,22.70
2011,07,28,16,30,22.60
2011,07,28,16,31,22.60
2011,07,28,16,32,22.50
2011,07,28,16,33,22.40
2011,07,28,16,34,22.40
2011,07,28,16,35,22.30
2011,07,28,16,36,22.30
2011,07,28,16,37,22.30
2011,07,28,16,38,22.30
2011,07,28,16,39,22.40
2011,07,28,16,40,22.40
2011,07,28,16,41,22.30
2011,07,28,16,42,22.30
2011,07,28,16,43,22.20
2011,07,28,16,44,22.20
2011,07,28,16,45,22.20
2011,07,28,16,46,22.20
2011,07,28,16,47,22.20
2011,07,28,16,48,22.20
2011,07,28,16,49,22.20
2011,07,28,16,50,22.10
2011,07,28,16,51,22.10
2011,07,28,16,52,22.10
2011,07,28,16,53,22.10
2011,07,28,16,54,22.20
2011,07,28,16,55,22.30
2011,07,28,16,56,22.30
2011,07,28,16,57,22.30
2011,07,28,16,58,22.30
2011,07,28,16,59,22.30
2011,07,28,17,00,22.40
2011,07,28,17,01,22.40
2011,07,28,17,02,22.50
2011,07,28,17,03,22.50
2011,07,28,17,04,22.50
2011,07,28,17,05,22.50
2011,07,28,17,06,22.60
2011,07,28,17,07,22.60
2011,07,28,17,08,22.60
2011,07,28,17,09,22.60
2011,07,28,17,10,22.70
2011,07,28,17,11,22.70
2011,07,28,17,12,22.70
2011,07,28,17,13,22.80
2011,07,28,17,14,22.80
2011,07,28,17,15,22.80
2011,07,28,17,16,22.80
2011,07,28,17,17,22.80
2011,07,28,17,18,22.80
2011,07,28,17,19,22.70
2011,07,28,17,20,22.70
2011,07,28,17,21,22.70
2011,07,28,17,22,22.70
2011,07,28,17,23,22.70
2011,07,28,17,24,22.80
2011,07,28,17,25,22.80